DELTA 1 DEB, 5443

Orbit data source: Space-Track

DELTA 1 DEB, 5443 is space debris in SSO originally from a launch on Fri, 10 Nov 1967 UTC launched from the Air Force Western Test Range (AFWTR). Debris objects in space refer to the collection of defunct objects orbiting the Earth. Examples of debris include non-operational satellites, rocket bodies, and fragments generated from explosions, collisions, or faulty payload assembly.

Loading next visibility...
Identifier
5443, 1967-114E
Orbit
SSO
Country
Flag of USUS
Related business
Manufacturer
Unknown
Mission
Spacecraft
Bus & Motor
Unknown
Mass
Unknown
Launch date (UTC)
1967-11-10 (58 years ago)
Launch vehicle
Unknown
Launch site
Air Force Western Test Range (AFWTR)
Object type
Payload
Rocket body
Debris
Shape & HBR
Unknown shape, 0.1 m
Radar Cross Section
Small (<0.1 m²)

Expand to show TLE details & history
Last TLE update: 2 days ago

TLE from 2 days ago
0 DELTA 1 DEB
1  5443U 67114E   26124.65082990 -.00000018  00000-0  14758-3 0  9997
2  5443 101.4113  80.8026 0062566 110.8099  72.6590 12.56810055681788
Epoch: 2026-05-04T15:37Z
TLE epoch observation values (Epoch: 2026-05-04T15:37:11.703Z)
Latitude
-4.20134°
Longitude
163.1215°
Altitude
1,425.083 km
Speed
7.155 km/s
True Right ascension
17h 19m 49s
True Declination
-4° 10' 42"
Sunlit
Object was in full shadow at epoch
Visualization orbit readout
Latitude
Unknown
Longitude
Unknown
Altitude
Unknown
Speed
Unknown
Apparent Right ascension
Unknown
Apparent Declination
Unknown
Sunlit
N/A
Visualization observer readout
Local Sidereal Time
21:39:18
Azimuth
Unknown
Elevation
Unknown
Doppler factor
Unknown
Orbital elements
Apogee altitude
1,482.532 km
Perigee altitude
1,384.782 km
Semi-major axis
7,811.794 km
Eccentricity
0.00626
Inclination
101.4113°
RAAN
80.8026°
Arg. of periapsis
110.8099°
True anomaly
73.34495°
Mean anomaly
72.659°
Eccentric anomaly
73.00182°
Mean motion
3.14353 °/min
Orbital period
114.52 mins
BSTAR
0.00014758
Loading maneuver chart data...
Computing Atmospheric mass density...
Loading historical data...
Loading historical data...
Loading historical data...
Loading historical data...
Loading historical data...
Loading historical data...
Loading historical data...
Other satellites on launch #114 in the year 1967 (1967-11-10 UTC)

Documentation

Showing up to 5 results
|